Location: Krakow
(50.0212°N, 19.9423°E)
Time: 02:00:23
(UTC+02:00)

NOAA 15 - Pass Details

Date: 19 September 2024
Orbit: 795 x 810 km, 98.6° (Epoch: 10 October)

Event Time Altitude Azimuth Distance (km) Brightness Sun altitude
Rises 19:05:11 0° 160° (SSE) 3,288 7.5 -4.2°
Reaches altitude 10° 19:07:30 10° 160° (SSE) 2,362 6.8 -4.6°
Maximum altitude 19:12:43 82° 73° (ENE) 809 4.6 -5.4°
Drops below altitude 10° 19:17:59 10° 347° (NNW) 2,378 7.4 -6.2°
Sets 19:20:19 0° 346° (NNW) 3,313 8.1 -6.6°
